World > North America > United States > Missouri

St. Louis, Missouri Regional Weather

Lat: 38.64N, Lon: 90.24W
Wx Zone: MOZ064Web Search

Helpful Tip: Type the letters wx in the search engine next time you need to find us.

Feedback
Saint Louis Weather Map
UTC Time: 9/25/2020, 01:20
Your Time:

St. Louis, MO Regional Weather

Expires:202009250200;;316503
ASUS43 KEAX 250115
RWREAX

WEATHER ROUNDUP FOR EASTERN KANSAS AND NORTHWEST MISSOURI
NATIONAL WEATHER SERVICE KANSAS CITY/PLEASANT HILL MO
800 PM CDT THU SEP 24 2020


MOZ041-047>049-056>058-063>065-088>090-097-250200-
...EASTERN AND SOUTHERN MISSOURI...
  
CITY           SKY/WX    TMP DP  RH WIND       PRES   REMARKS
ST. LOUIS INTL CLEAR     70  56  61 SW3       29.92S                  
SPIRIT OF STL  CLEAR     61  58  90 CALM      29.92R                  
COLUMBIA       CLEAR     64  58  80 SE7       29.90F                  
JEFFERSON CITY CLEAR     65  59  81 SE3       29.90S                  
MEXICO         CLEAR     57  55  94 CALM      29.92R                  
HANNIBAL       CLEAR     66  54  63 S7        29.91S                  
LEBANON        CLEAR     63  54  72 E3        29.93S                  
OSAGE BEACH    CLEAR     63  59  87 E3        29.92R                  
SPRINGFIELD    CLEAR     70  55  59 N3        29.90R                  
BRANSON        CLEAR     66  55  68 SE5       29.92S                  
JOPLIN         CLEAR     68  55  63 CALM      29.90S                  
WEST PLAINS    CLEAR     60  56  86 E3        29.95S                  
SIKESTON       CLOUDY    64  61  88 CALM      29.92S                  

$$


SKY/WX - Weather  TMP - Temperature  DP - Dew Point  RH - Relative Humidity
WIND - Wind Direction/Speed PRES - Barometric Pressure VSB - Visibility
WCI - Wind Chill Index E13G22 Wind - East Wind 13 mph/Gusts of 22 mph